TimeEDT,TemperatureF,Dew PointF,Humidity,Sea Level PressureIn,VisibilityMPH,Wind Direction,Wind SpeedMPH,Gust SpeedMPH,PrecipitationIn,Events,Conditions,WindDirDegrees,DateUTC
12:53 AM,79.0,72.0,79,30.14,10.0,ESE,5.8,-,N/A,,Mostly Cloudy,120,2013-05-10 04:53:00
1:00 AM,78.8,71.6,78,30.13,10.0,ESE,3.5,-,N/A,,Partly Cloudy,120,2013-05-10 05:00:00
1:53 AM,79.0,72.0,79,30.11,10.0,ESE,5.8,-,N/A,,Mostly Cloudy,110,2013-05-10 05:53:00
2:53 AM,78.1,71.1,79,30.10,10.0,ESE,4.6,-,N/A,,Partly Cloudy,110,2013-05-10 06:53:00
3:35 AM,78.8,71.6,78,30.08,10.0,SE,4.6,-,N/A,,Mostly Cloudy,130,2013-05-10 07:35:00
3:42 AM,78.8,71.6,78,30.08,10.0,SE,4.6,-,N/A,,Scattered Clouds,140,2013-05-10 07:42:00
3:53 AM,78.8,71.6,78,30.08,10.0,SE,3.5,-,N/A,,Mostly Cloudy,130,2013-05-10 07:53:00
4:53 AM,75.0,66.0,73,30.09,10.0,SE,5.8,-,N/A,,Partly Cloudy,130,2013-05-10 08:53:00
5:53 AM,73.9,68.0,82,30.09,10.0,SE,5.8,-,N/A,,Clear,140,2013-05-10 09:53:00
6:53 AM,73.9,68.0,82,30.09,10.0,Calm,Calm,-,N/A,,Clear,0,2013-05-10 10:53:00
7:53 AM,77.0,66.2,69,30.09,10.0,Calm,Calm,-,N/A,,Clear,0,2013-05-10 11:53:00
8:53 AM,81.0,70.0,69,30.11,10.0,East,9.2,-,N/A,,Partly Cloudy,100,2013-05-10 12:53:00
9:53 AM,81.0,71.1,72,30.11,10.0,ESE,10.4,-,N/A,,Scattered Clouds,120,2013-05-10 13:53:00
10:53 AM,84.0,69.1,61,30.12,10.0,SE,9.2,-,N/A,,Scattered Clouds,130,2013-05-10 14:53:00
11:53 AM,84.9,68.0,57,30.11,10.0,Variable,4.6,-,N/A,,Scattered Clouds,0,2013-05-10 15:53:00
12:53 PM,88.0,66.9,49,30.09,10.0,SE,12.7,-,N/A,,Partly Cloudy,140,2013-05-10 16:53:00
1:53 PM,87.1,69.1,55,30.09,10.0,ESE,16.1,20.7,N/A,,Partly Cloudy,120,2013-05-10 17:53:00
2:53 PM,87.1,66.0,49,30.07,10.0,SE,17.3,21.9,N/A,,Clear,140,2013-05-10 18:53:00
3:53 PM,87.1,68.0,53,30.05,10.0,ESE,15.0,-,N/A,,Scattered Clouds,120,2013-05-10 19:53:00
4:53 PM,82.9,71.1,67,30.04,10.0,SE,12.7,-,N/A,,Scattered Clouds,130,2013-05-10 20:53:00
5:53 PM,82.0,72.0,71,30.05,10.0,SE,10.4,-,N/A,,Scattered Clouds,130,2013-05-10 21:53:00
6:53 PM,81.0,71.1,72,30.06,10.0,SE,8.1,-,N/A,,Scattered Clouds,140,2013-05-10 22:53:00
7:53 PM,81.0,72.0,74,30.06,10.0,South,8.1,-,N/A,,Scattered Clouds,170,2013-05-10 23:53:00
8:53 PM,80.1,72.0,76,30.09,10.0,SSE,5.8,-,N/A,,Scattered Clouds,150,2013-05-11 00:53:00
9:53 PM,80.1,72.0,76,30.08,10.0,SSE,8.1,-,N/A,,Clear,150,2013-05-11 01:53:00
10:53 PM,79.0,73.0,82,30.08,10.0,SE,5.8,-,N/A,,Clear,140,2013-05-11 02:53:00
11:53 PM,79.0,72.0,79,30.08,10.0,SSE,5.8,-,N/A,,Clear,150,2013-05-11 03:53:00